7 * 24
多渠道服务支持
STARLINK-32753 是 SpaceX Starlink 卫星互联网项目中的一颗低轨卫星,属于第三代星链卫星(v1.5 或 v2 版本)。该卫星由猎鹰 9 号火箭发射入轨,旨在为全球用户提供高速、低延迟的宽带互联网服务。它运行在约 550 公里的轨道高度,配备先进推进系统和激光通信设备,以提升网络性能和卫星间通信能力。STARLINK-32753 的部署有助于扩大 Starlink 在全球范围的覆盖,特别是在偏远和网络基础设施薄弱的地区。
美国
(US)
| 数据来源 | 国际轨道数据 |
| 星历时间: | 2025-11-06T19:38:14+0800 1天前 查看轨道信息 |
| 半长轴: | 6861.029km |
| 偏心率: | 0.0001702 |
| 轨道倾角: | 43.001° |
| 近地点辐角 | 274.713° |
| 升交点赤经 | 351.886° |
| 平近点角 | 85.353° |
| 近地点: | 481.726km |
| 远地点: | 484.062km |
| 周期: | 94.264分钟 |
| 每日圈数: | 15.276325 |